Date String (YYYY-MM-DD hh:mm:ss) UTC,Instrument flags,Ambient pressure (hPa),Sample flow (lpm),Bypass flow (lpm),Sample temperature (°C),Ambient temperature (°C),ASC tube jacket temperature (°C),LED temperature (°C),Box temperature (°C),Sample RH (%),Span deviation,Mass concentration (μg/m³),Mass concentration (μg/m³),Mass concentration (μg/m³)
DateTimeUTC,F1_M11,P_M11,Q1_M11,Q2_M11,T1_M11,T2_M11,T3_M11,T4_M11,T5_M11,U1_M11,ZSPAN_M11,X2_M11,X0_M11,X1_M11
2022-03-12 15:00:00,,0826.0,5.01,0.00,22.3,21.6,00.0,31.3,23.9,08.8,0000.0,0001.16,0002.75,0000.71
2022-03-12 15:01:00,,0826.1,4.99,0.00,22.2,21.6,00.0,31.3,23.9,08.9,0000.0,0001.22,0003.11,0000.72
2022-03-12 15:02:00,,0826.1,5.01,0.00,22.2,21.6,00.0,31.3,24.0,08.9,0000.0,0001.26,0003.22,0000.73
2022-03-12 15:03:00,,0826.2,5.01,0.00,22.3,21.6,00.0,31.3,24.0,08.9,0000.0,0001.26,0003.24,0000.73
2022-03-12 15:04:00,,0826.1,5.00,0.00,22.3,21.7,00.0,31.3,24.0,09.1,0000.0,0001.31,0003.40,0000.73
2022-03-12 15:05:00,,0826.2,5.00,0.00,22.3,21.7,00.0,31.3,24.0,09.1,0000.0,0001.31,0003.42,0000.74
2022-03-12 15:06:00,,0826.1,5.00,0.00,22.3,21.7,00.0,31.3,24.1,09.2,0000.0,0001.31,0003.86,0000.73
2022-03-12 15:07:00,,0826.2,5.00,0.00,22.3,21.7,00.0,31.3,24.1,09.2,0000.0,0001.26,0003.81,0000.73
2022-03-12 15:08:00,,0826.1,5.00,0.00,22.3,21.7,00.0,31.3,24.1,09.3,0000.0,0001.23,0003.70,0000.73
2022-03-12 15:09:00,,0826.2,5.00,0.00,22.3,21.8,00.0,31.3,24.1,09.3,0000.0,0001.22,0003.67,0000.73
2022-03-12 15:10:00,,0826.2,5.00,0.00,22.4,21.8,00.0,31.3,24.2,09.5,0000.0,0001.22,0003.52,0000.74
2022-03-12 15:11:00,,0826.2,4.99,0.00,22.4,21.8,00.0,31.3,24.1,09.4,0000.0,0001.21,0003.29,0000.73
2022-03-12 15:12:00,,0826.3,4.99,0.00,22.4,21.8,00.0,31.3,24.1,09.2,0000.0,0001.14,0002.95,0000.72
2022-03-12 15:13:00,,0826.4,5.02,0.00,22.4,21.8,00.0,31.3,24.1,09.2,0000.0,0001.13,0002.92,0000.71
2022-03-12 15:14:00,,0826.4,5.00,0.00,22.4,21.8,00.0,31.3,24.2,09.2,0000.0,0001.14,0002.99,0000.72
2022-03-12 15:15:00,,0826.4,4.99,0.00,22.4,21.8,00.0,31.3,24.2,09.3,0000.0,0001.11,0002.96,0000.73
2022-03-12 15:16:00,,0826.5,4.99,0.00,22.4,21.8,00.0,31.3,24.2,09.5,0000.0,0001.10,0002.88,0000.73
2022-03-12 15:17:00,,0826.5,5.00,0.00,22.4,21.8,00.0,31.3,24.3,10.8,0000.0,0001.25,0002.92,0000.80
2022-03-12 15:18:00,,0826.5,5.00,0.00,22.4,21.8,00.0,31.3,24.3,11.4,0000.0,0001.47,0003.96,0000.95
2022-03-12 15:19:00,,0826.6,5.00,0.00,22.5,21.9,00.0,31.3,24.3,11.8,0000.0,0001.68,0004.28,0001.14
2022-03-12 15:20:00,,0826.5,5.00,0.00,22.5,21.9,00.0,31.3,24.3,12.4,0000.0,0002.01,0004.95,0001.35
2022-03-12 15:21:00,,0826.5,5.01,0.00,22.5,21.9,00.0,31.3,24.3,12.1,0000.0,0002.36,0005.59,0001.56
2022-03-12 15:22:00,,0826.5,5.00,0.00,22.5,21.9,00.0,31.4,24.3,10.2,0000.0,0002.48,0005.81,0001.65
2022-03-12 15:23:00,,0826.5,5.00,0.00,22.5,21.9,00.0,31.4,24.3,10.0,0000.0,0002.53,0005.86,0001.68
2022-03-12 15:24:00,,0826.5,5.00,0.00,22.5,21.9,00.0,31.4,24.3,10.1,0000.0,0002.59,0006.62,0001.71
2022-03-12 15:25:00,,0826.5,5.01,0.00,22.5,21.9,00.0,31.4,24.3,10.6,0000.0,0002.71,0007.32,0001.74
2022-03-12 15:26:00,,0826.5,5.00,0.00,22.5,21.9,00.0,31.4,24.2,10.0,0000.0,0002.77,0007.37,0001.77
2022-03-12 15:27:00,,0826.5,5.00,0.00,22.4,21.8,00.0,31.4,24.1,10.0,0000.0,0002.82,0007.52,0001.78
2022-03-12 15:28:00,,0826.5,5.00,0.00,22.4,21.8,00.0,31.4,24.1,10.1,0000.0,0002.80,0007.65,0001.77
2022-03-12 15:29:00,,0826.5,5.02,0.00,22.4,21.7,00.0,31.4,24.1,10.2,0000.0,0002.66,0006.46,0001.67
2022-03-12 15:30:00,,0826.5,5.00,0.00,22.4,21.8,00.0,31.4,24.1,10.1,0000.0,0002.53,0006.26,0001.56
2022-03-12 15:31:00,,0826.5,4.99,0.00,22.4,21.7,00.0,31.4,24.1,09.8,0000.0,0002.27,0006.04,0001.37
2022-03-12 15:32:00,,0826.5,4.99,0.00,22.4,21.7,00.0,31.4,24.1,09.8,0000.0,0001.91,0006.63,0001.14
2022-03-12 15:33:00,,0826.5,5.01,0.00,22.4,21.7,00.0,31.4,24.1,09.3,0000.0,0001.71,0006.92,0001.02
2022-03-12 15:34:00,,0826.5,5.00,0.00,22.4,21.7,00.0,31.4,24.1,09.1,0000.0,0001.70,0006.96,0000.99
2022-03-12 15:35:00,,0826.5,4.99,0.00,22.4,21.7,00.0,31.4,24.1,09.5,0000.0,0001.67,0006.49,0000.98
2022-03-12 15:36:00,,0826.4,5.00,0.00,22.4,21.7,00.0,31.4,24.1,09.4,0000.0,0001.56,0005.52,0000.94
2022-03-12 15:37:00,,0826.4,5.01,0.00,22.3,21.6,00.0,31.4,24.0,09.7,0000.0,0001.48,0005.33,0000.92
2022-03-12 15:38:00,,0826.4,5.01,0.00,22.3,21.6,00.0,31.3,24.0,09.4,0000.0,0001.46,0005.22,0000.91
2022-03-12 15:39:00,,0826.4,5.00,0.00,22.3,21.6,00.0,31.3,24.0,09.4,0000.0,0001.40,0004.93,0000.88
2022-03-12 15:40:00,,0826.3,4.99,0.00,22.2,21.6,00.0,31.3,23.9,09.6,0000.0,0001.34,0004.83,0000.84
2022-03-12 15:41:00,,0826.3,4.99,0.00,22.2,21.6,00.0,31.3,23.9,09.9,0000.0,0001.27,0004.67,0000.80
2022-03-12 15:42:00,,0826.2,5.01,0.00,22.2,21.6,00.0,31.3,23.9,09.6,0000.0,0001.27,0004.42,0000.80
2022-03-12 15:43:00,,0826.3,5.00,0.00,22.2,21.5,00.0,31.3,23.9,09.7,0000.0,0001.24,0003.08,0000.80
2022-03-12 15:44:00,,0826.3,5.00,0.00,22.2,21.6,00.0,31.3,23.9,09.9,0000.0,0001.19,0002.45,0000.79
2022-03-12 15:45:00,,0826.3,5.00,0.00,22.2,21.5,00.0,31.3,23.9,09.7,0000.0,0001.17,0002.41,0000.79
2022-03-12 15:46:00,,0826.4,5.00,0.00,22.2,21.6,00.0,31.3,23.9,10.1,0000.0,0001.16,0002.39,0000.78
2022-03-12 15:47:00,,0826.4,5.01,0.00,22.2,21.6,00.0,31.3,23.9,10.0,0000.0,0001.18,0002.44,0000.79
2022-03-12 15:48:00,,0826.3,4.99,0.00,22.2,21.6,00.0,31.3,23.9,09.5,0000.0,0001.19,0002.47,0000.79
2022-03-12 15:49:00,,0826.3,4.99,0.00,22.2,21.5,00.0,31.3,23.9,09.8,0000.0,0001.17,0002.46,0000.78
2022-03-12 15:50:00,,0826.3,5.02,0.00,22.2,21.5,00.0,31.3,23.9,09.8,0000.0,0001.19,0002.60,0000.78
2022-03-12 15:51:00,,0826.2,4.99,0.00,22.2,21.5,00.0,31.3,23.9,10.1,0000.0,0001.21,0002.60,0000.78
2022-03-12 15:52:00,,0826.4,5.00,0.00,22.2,21.5,00.0,31.3,23.9,09.9,0000.0,0001.21,0002.59,0000.77
2022-03-12 15:53:00,,0826.4,5.00,0.00,22.2,21.5,00.0,31.2,23.9,09.7,0000.0,0001.18,0002.47,0000.76
2022-03-12 15:54:00,,0826.3,5.00,0.00,22.2,21.6,00.0,31.2,23.9,10.0,0000.0,0001.21,0002.46,0000.77
2022-03-12 15:55:00,,0826.3,4.99,0.00,22.2,21.6,00.0,31.3,24.0,10.5,0000.0,0001.23,0002.49,0000.77
2022-03-12 15:56:00,,0826.3,5.01,0.00,22.3,21.6,00.0,31.3,24.0,10.7,0000.0,0001.23,0002.47,0000.77
2022-03-12 15:57:00,,0826.3,5.00,0.00,22.3,21.6,00.0,31.3,24.0,10.2,0000.0,0001.23,0003.08,0000.78
2022-03-12 15:58:00,,0826.3,5.00,0.00,22.3,21.7,00.0,31.3,24.0,10.3,0000.0,0001.23,0003.17,0000.78
2022-03-12 15:59:00,,0826.3,5.00,0.00,22.3,21.7,00.0,31.3,24.0,10.0,0000.0,0001.20,0003.10,0000.77
